owner,sensor,date,latitude,longitude,vertical_datum,wind_speed,wind_to_direction,wind_speed_of_gust,qcFlag 
TCOON,ioos:station:TCOON:518:1,2012-06-01T00:00:00Z,29.5150,-94.5133,0.0,1.5,270.0,,'1111122,1111122,1111122' 
TCOON,ioos:station:TCOON:518:1,2012-06-01T01:00:00Z,29.5150,-94.5133,0.0,2.6,230.0,,'1111122,1111122,1111122' 
TCOON,ioos:station:TCOON:518:1,2012-06-01T02:00:00Z,29.5150,-94.5133,0.0,2.1,220.0,,'1111122,1111122,1111122' 
TCOON,ioos:station:TCOON:518:1,2012-06-01T03:00:00Z,29.5150,-94.5133,0.0,2.6,230.0,,'1111122,1111122,1111122' 
TCOON,ioos:station:TCOON:518:1,2012-06-01T04:00:00Z,29.5150,-94.5133,0.0,2.1,240.0,,'1111122,1111122,1111122' 
TCOON,ioos:station:TCOON:518:1,2012-06-01T05:00:00Z,29.5150,-94.5133,0.0,2.1,240.0,,'1111122,1111122,1111122' 
TCOON,ioos:station:TCOON:518:1,2012-06-01T06:00:00Z,29.5150,-94.5133,0.0,2.1,270.0,,'1111122,1111122,1111122' 
TCOON,ioos:station:TCOON:518:1,2012-06-01T07:00:00Z,29.5150,-94.5133,0.0,3.6,330.0,,'1111122,1111122,1111122' 
TCOON,ioos:station:TCOON:518:1,2012-06-01T08:00:00Z,29.5150,-94.5133,0.0,4.1,340.0,,'1111122,1111122,1111122' 
TCOON,ioos:station:TCOON:518:1,2012-06-01T09:00:00Z,29.5150,-94.5133,0.0,4.6,360.0,,'1111122,1111122,1111122' 
TCOON,ioos:station:TCOON:518:1,2012-06-01T10:00:00Z,29.5150,-94.5133,0.0,3.6,340.0,,'1111122,1111122,1111122' 
TCOON,ioos:station:TCOON:518:1,2012-06-01T11:00:00Z,29.5150,-94.5133,0.0,5.7,10.0,,'1111122,1111122,1111122' 
TCOON,ioos:station:TCOON:518:1,2012-06-01T12:00:00Z,29.5150,-94.5133,0.0,7.7,20.0,,'1111122,1111122,1111122' 
TCOON,ioos:station:TCOON:518:1,2012-06-01T13:00:00Z,29.5150,-94.5133,0.0,7.7,30.0,,'1111122,1111122,1111122' 
TCOON,ioos:station:TCOON:518:1,2012-06-01T14:00:00Z,29.5150,-94.5133,0.0,6.7,30.0,,'1111122,1111122,1111122' 
TCOON,ioos:station:TCOON:518:1,2012-06-01T15:00:00Z,29.5150,-94.5133,0.0,5.1,40.0,,'1111122,1111122,1111122' 
TCOON,ioos:station:TCOON:518:1,2012-06-01T16:00:00Z,29.5150,-94.5133,0.0,3.6,20.0,,'1111122,1111122,1111122' 
TCOON,ioos:station:TCOON:518:1,2012-06-01T17:00:00Z,29.5150,-94.5133,0.0,2.6,130.0,,'1111122,1111122,1111122' 
TCOON,ioos:station:TCOON:518:1,2012-06-01T18:00:00Z,29.5150,-94.5133,0.0,2.6,200.0,,'1111122,1111122,1111122' 
TCOON,ioos:station:TCOON:518:1,2012-06-01T19:00:00Z,29.5150,-94.5133,0.0,3.6,160.0,,'1111122,1111122,1111122' 
TCOON,ioos:station:TCOON:518:1,2012-06-01T20:00:00Z,29.5150,-94.5133,0.0,2.1,290.0,,'1111122,1111122,1111122' 
TCOON,ioos:station:TCOON:518:1,2012-06-01T21:00:00Z,29.5150,-94.5133,0.0,3.6,180.0,,'1111122,1111122,1111122' 
TCOON,ioos:station:TCOON:518:1,2012-06-01T22:00:00Z,29.5150,-94.5133,0.0,3.1,180.0,,'1111122,1111122,1111122' 
TCOON,ioos:station:TCOON:518:1,2012-06-01T23:00:00Z,29.5150,-94.5133,0.0,2.1,180.0,,'1111122,1111122,1111122' 
TCOON,ioos:station:TCOON:518:1,2012-06-02T00:00:00Z,29.5150,-94.5133,0.0,2.1,190.0,,'1111122,1111122,1111122' 
TCOON,ioos:station:TCOON:518:1,2012-06-02T01:00:00Z,29.5150,-94.5133,0.0,2.1,160.0,,'1111122,1111122,1111122' 
TCOON,ioos:station:TCOON:518:1,2012-06-02T02:00:00Z,29.5150,-94.5133,0.0,2.6,140.0,,'1111122,1111122,1111122' 
TCOON,ioos:station:TCOON:518:1,2012-06-02T03:00:00Z,29.5150,-94.5133,0.0,2.6,150.0,,'1111122,1111122,1111122' 
TCOON,ioos:station:TCOON:518:1,2012-06-02T04:00:00Z,29.5150,-94.5133,0.0,3.1,160.0,,'1111122,1111122,1111122' 
TCOON,ioos:station:TCOON:518:1,2012-06-02T05:00:00Z,29.5150,-94.5133,0.0,2.1,170.0,,'1111122,1111122,1111122' 
TCOON,ioos:station:TCOON:518:1,2012-06-02T06:00:00Z,29.5150,-94.5133,0.0,2.1,200.0,,'1111122,1111122,1111122' 
TCOON,ioos:station:TCOON:518:1,2012-06-02T07:00:00Z,29.5150,-94.5133,0.0,2.1,200.0,,'1111122,1111122,1111122' 
TCOON,ioos:station:TCOON:518:1,2012-06-02T08:00:00Z,29.5150,-94.5133,0.0,2.1,180.0,,'1111122,1111122,1111122' 
TCOON,ioos:station:TCOON:518:1,2012-06-02T09:00:00Z,29.5150,-94.5133,0.0,2.6,190.0,,'1111122,1111122,1111122' 
TCOON,ioos:station:TCOON:518:1,2012-06-02T10:00:00Z,29.5150,-94.5133,0.0,2.1,190.0,,'1111122,1111122,1111122' 
TCOON,ioos:station:TCOON:518:1,2012-06-02T11:00:00Z,29.5150,-94.5133,0.0,1.5,170.0,,'1111122,1111122,1111122' 
TCOON,ioos:station:TCOON:518:1,2012-06-02T12:00:00Z,29.5150,-94.5133,0.0,2.4,180.0,3.5,'11111222,11111222,11111222' 
TCOON,ioos:station:TCOON:518:1,2012-06-02T13:00:00Z,29.5150,-94.5133,0.0,3.0,194.0,4.8,'11111222,11111222,11111222' 
TCOON,ioos:station:TCOON:518:1,2012-06-02T14:00:00Z,29.5150,-94.5133,0.0,3.3,180.0,5.9,'11111222,11111222,11111222' 
TCOON,ioos:station:TCOON:518:1,2012-06-02T15:00:00Z,29.5150,-94.5133,0.0,3.5,139.0,4.6,'11111222,11111222,11111222' 
TCOON,ioos:station:TCOON:518:1,2012-06-02T16:00:00Z,29.5150,-94.5133,0.0,3.9,140.0,4.6,'11111222,11111222,11111222' 
TCOON,ioos:station:TCOON:518:1,2012-06-02T17:00:00Z,29.5150,-94.5133,0.0,4.0,151.0,6.9,'11111222,11111222,11111222' 
TCOON,ioos:station:TCOON:518:1,2012-06-02T18:00:00Z,29.5150,-94.5133,0.0,4.2,150.0,5.7,'11111222,11111222,11111222' 
TCOON,ioos:station:TCOON:518:1,2012-06-02T20:00:00Z,29.5150,-94.5133,0.0,3.7,171.0,6.2,'11111222,11111222,11111222' 
TCOON,ioos:station:TCOON:518:1,2012-06-02T21:00:00Z,29.5150,-94.5133,0.0,4.2,186.0,6.1,'11111222,11111222,11111222' 
TCOON,ioos:station:TCOON:518:1,2012-06-02T22:00:00Z,29.5150,-94.5133,0.0,3.6,184.0,5.4,'11111222,11111222,11111222' 
TCOON,ioos:station:TCOON:518:1,2012-06-02T23:00:00Z,29.5150,-94.5133,0.0,4.6,166.0,6.1,'11111222,11111222,11111222' 
TCOON,ioos:station:TCOON:518:1,2012-06-03T00:00:00Z,29.5150,-94.5133,0.0,4.8,160.0,6.3,'11111222,11111222,11111222' 
TCOON,ioos:station:TCOON:518:1,2012-06-03T01:00:00Z,29.5150,-94.5133,0.0,3.1,173.0,6.3,'11111222,11111222,11111222' 
TCOON,ioos:station:TCOON:518:1,2012-06-03T02:00:00Z,29.5150,-94.5133,0.0,4.8,179.0,6.4,'11111222,11111222,11111222' 
TCOON,ioos:station:TCOON:518:1,2012-06-03T03:00:00Z,29.5150,-94.5133,0.0,4.1,173.0,6.4,'11111222,11111222,11111222' 
TCOON,ioos:station:TCOON:518:1,2012-06-03T04:00:00Z,29.5150,-94.5133,0.0,3.3,190.0,6.3,'11111222,11111222,11111222' 
TCOON,ioos:station:TCOON:518:1,2012-06-03T05:00:00Z,29.5150,-94.5133,0.0,3.8,182.0,5.7,'11111222,11111222,11111222' 
TCOON,ioos:station:TCOON:518:1,2012-06-03T06:00:00Z,29.5150,-94.5133,0.0,4.0,186.0,6.8,'11111222,11111222,11111222' 
TCOON,ioos:station:TCOON:518:1,2012-06-03T07:00:00Z,29.5150,-94.5133,0.0,3.4,188.0,5.6,'11111222,11111222,11111222' 
TCOON,ioos:station:TCOON:518:1,2012-06-03T08:00:00Z,29.5150,-94.5133,0.0,3.7,195.0,6.6,'11111222,11111222,11111222' 
TCOON,ioos:station:TCOON:518:1,2012-06-03T09:00:00Z,29.5150,-94.5133,0.0,4.0,193.0,5.7,'11111222,11111222,11111222' 
TCOON,ioos:station:TCOON:518:1,2012-06-03T10:00:00Z,29.5150,-94.5133,0.0,4.6,196.0,6.8,'11111222,11111222,11111222' 
TCOON,ioos:station:TCOON:518:1,2012-06-03T11:00:00Z,29.5150,-94.5133,0.0,4.5,180.0,6.4,'11111222,11111222,11111222' 
TCOON,ioos:station:TCOON:518:1,2012-06-03T12:00:00Z,29.5150,-94.5133,0.0,3.0,193.0,5.4,'11111222,11111222,11111222' 
TCOON,ioos:station:TCOON:518:1,2012-06-03T13:00:00Z,29.5150,-94.5133,0.0,3.3,174.0,6.0,'11111222,11111222,11111222' 
TCOON,ioos:station:TCOON:518:1,2012-06-03T14:00:00Z,29.5150,-94.5133,0.0,4.3,180.0,6.5,'11111222,11111222,11111222' 
TCOON,ioos:station:TCOON:518:1,2012-06-03T15:00:00Z,29.5150,-94.5133,0.0,5.1,187.0,7.3,'11111222,11111222,11111222' 
TCOON,ioos:station:TCOON:518:1,2012-06-03T16:00:00Z,29.5150,-94.5133,0.0,5.2,188.0,8.6,'11111222,11111222,11111222' 
TCOON,ioos:station:TCOON:518:1,2012-06-03T17:00:00Z,29.5150,-94.5133,0.0,5.8,181.0,8.0,'11111222,11111222,11111222' 
TCOON,ioos:station:TCOON:518:1,2012-06-03T18:00:00Z,29.5150,-94.5133,0.0,4.3,195.0,7.5,'11111222,11111222,11111222' 
TCOON,ioos:station:TCOON:518:1,2012-06-03T19:00:00Z,29.5150,-94.5133,0.0,5.1,177.0,7.5,'11111222,11111222,11111222' 
TCOON,ioos:station:TCOON:518:1,2012-06-03T20:00:00Z,29.5150,-94.5133,0.0,4.8,180.0,8.3,'11111222,11111222,11111222' 
TCOON,ioos:station:TCOON:518:1,2012-06-03T21:00:00Z,29.5150,-94.5133,0.0,5.2,188.0,7.1,'11111222,11111222,11111222' 
TCOON,ioos:station:TCOON:518:1,2012-06-03T22:00:00Z,29.5150,-94.5133,0.0,3.3,190.0,5.9,'11111222,11111222,11111222' 
TCOON,ioos:station:TCOON:518:1,2012-06-03T23:00:00Z,29.5150,-94.5133,0.0,3.5,184.0,5.6,'11111222,11111222,11111222' 
TCOON,ioos:station:TCOON:518:1,2012-06-04T00:00:00Z,29.5150,-94.5133,0.0,3.1,176.0,4.6,'11111222,11111222,11111222' 
TCOON,ioos:station:TCOON:518:1,2012-06-04T01:00:00Z,29.5150,-94.5133,0.0,2.3,186.0,3.6,'11111222,11111222,11111222' 
TCOON,ioos:station:TCOON:518:1,2012-06-04T02:00:00Z,29.5150,-94.5133,0.0,3.6,166.0,5.1,'11111222,11111222,11111222' 
TCOON,ioos:station:TCOON:518:1,2012-06-04T03:00:00Z,29.5150,-94.5133,0.0,4.1,164.0,6.0,'11111222,11111222,11111222' 
TCOON,ioos:station:TCOON:518:1,2012-06-04T04:00:00Z,29.5150,-94.5133,0.0,5.7,154.0,7.4,'11111222,11111222,11111222' 
TCOON,ioos:station:TCOON:518:1,2012-06-04T05:00:00Z,29.5150,-94.5133,0.0,5.5,167.0,7.5,'11111222,11111222,11111222' 
TCOON,ioos:station:TCOON:518:1,2012-06-04T06:00:00Z,29.5150,-94.5133,0.0,4.9,178.0,7.9,'11111222,11111222,11111222' 
TCOON,ioos:station:TCOON:518:1,2012-06-04T07:00:00Z,29.5150,-94.5133,0.0,4.4,191.0,7.2,'11111222,11111222,11111222' 
TCOON,ioos:station:TCOON:518:1,2012-06-04T08:00:00Z,29.5150,-94.5133,0.0,3.7,194.0,5.4,'11111222,11111222,11111222' 
TCOON,ioos:station:TCOON:518:1,2012-06-04T09:00:00Z,29.5150,-94.5133,0.0,3.7,197.0,6.4,'11111222,11111222,11111222' 
TCOON,ioos:station:TCOON:518:1,2012-06-04T10:00:00Z,29.5150,-94.5133,0.0,3.7,200.0,5.5,'11111222,11111222,11111222' 
TCOON,ioos:station:TCOON:518:1,2012-06-04T11:00:00Z,29.5150,-94.5133,0.0,3.1,199.0,5.5,'11111222,11111222,11111222' 
TCOON,ioos:station:TCOON:518:1,2012-06-04T12:00:00Z,29.5150,-94.5133,0.0,3.7,206.0,5.4,'11111222,11111222,11111222' 
TCOON,ioos:station:TCOON:518:1,2012-06-04T13:00:00Z,29.5150,-94.5133,0.0,3.4,200.0,4.9,'11111222,11111222,11111222' 
TCOON,ioos:station:TCOON:518:1,2012-06-04T14:00:00Z,29.5150,-94.5133,0.0,2.0,193.0,4.1,'11111222,11111222,11111222' 
TCOON,ioos:station:TCOON:518:1,2012-06-04T15:00:00Z,29.5150,-94.5133,0.0,3.4,182.0,4.3,'11111222,11111222,11111222' 
TCOON,ioos:station:TCOON:518:1,2012-06-04T16:00:00Z,29.5150,-94.5133,0.0,3.0,168.0,4.6,'11111222,11111222,11111222' 
TCOON,ioos:station:TCOON:518:1,2012-06-04T17:00:00Z,29.5150,-94.5133,0.0,2.3,206.0,4.6,'11111222,11111222,11111222' 
TCOON,ioos:station:TCOON:518:1,2012-06-04T18:00:00Z,29.5150,-94.5133,0.0,3.6,180.0,6.1,'11111222,11111222,11111222' 
TCOON,ioos:station:TCOON:518:1,2012-06-04T19:00:00Z,29.5150,-94.5133,0.0,3.0,182.0,5.5,'11111222,11111222,11111222' 
TCOON,ioos:station:TCOON:518:1,2012-06-04T20:00:00Z,29.5150,-94.5133,0.0,4.5,158.0,6.2,'11111222,11111222,11111222' 
TCOON,ioos:station:TCOON:518:1,2012-06-04T21:00:00Z,29.5150,-94.5133,0.0,5.1,157.0,6.5,'11111222,11111222,11111222' 
TCOON,ioos:station:TCOON:518:1,2012-06-04T22:00:00Z,29.5150,-94.5133,0.0,5.2,152.0,7.5,'11111222,11111222,11111222' 
TCOON,ioos:station:TCOON:518:1,2012-06-04T23:00:00Z,29.5150,-94.5133,0.0,4.8,173.0,8.0,'11111222,11111222,11111222' 
TCOON,ioos:station:TCOON:518:1,2012-06-05T00:00:00Z,29.5150,-94.5133,0.0,5.5,183.0,7.0,'11111222,11111222,11111222' 
TCOON,ioos:station:TCOON:518:1,2012-06-05T01:00:00Z,29.5150,-94.5133,0.0,4.6,184.0,6.6,'11111222,11111222,11111222' 
TCOON,ioos:station:TCOON:518:1,2012-06-05T02:00:00Z,29.5150,-94.5133,0.0,3.5,172.0,5.6,'11111222,11111222,11111222' 
TCOON,ioos:station:TCOON:518:1,2012-06-05T03:00:00Z,29.5150,-94.5133,0.0,3.5,181.0,5.2,'11111222,11111222,11111222' 
TCOON,ioos:station:TCOON:518:1,2012-06-05T04:00:00Z,29.5150,-94.5133,0.0,3.5,183.0,5.8,'11111222,11111222,11111222' 
TCOON,ioos:station:TCOON:518:1,2012-06-05T05:00:00Z,29.5150,-94.5133,0.0,4.1,186.0,6.2,'11111222,11111222,11111222' 
TCOON,ioos:station:TCOON:518:1,2012-06-05T06:00:00Z,29.5150,-94.5133,0.0,3.2,191.0,5.0,'11111222,11111222,11111222' 
TCOON,ioos:station:TCOON:518:1,2012-06-05T07:00:00Z,29.5150,-94.5133,0.0,2.1,209.0,3.6,'11111222,11111222,11111222' 
TCOON,ioos:station:TCOON:518:1,2012-06-05T08:00:00Z,29.5150,-94.5133,0.0,1.4,245.0,2.4,'11111222,11111222,11111222' 
TCOON,ioos:station:TCOON:518:1,2012-06-05T09:00:00Z,29.5150,-94.5133,0.0,1.6,274.0,2.2,'11111222,11111222,11111222' 
TCOON,ioos:station:TCOON:518:1,2012-06-05T10:00:00Z,29.5150,-94.5133,0.0,1.4,213.0,2.1,'11111222,11111222,11111222' 
TCOON,ioos:station:TCOON:518:1,2012-06-05T11:00:00Z,29.5150,-94.5133,0.0,2.2,245.0,2.7,'11111222,11111222,11111222' 
TCOON,ioos:station:TCOON:518:1,2012-06-05T12:00:00Z,29.5150,-94.5133,0.0,1.6,259.0,2.0,'11111222,11111222,11111222' 
TCOON,ioos:station:TCOON:518:1,2012-06-05T13:00:00Z,29.5150,-94.5133,0.0,3.4,4.0,4.0,'11111222,11111222,11111222' 
TCOON,ioos:station:TCOON:518:1,2012-06-05T14:00:00Z,29.5150,-94.5133,0.0,3.6,14.0,4.3,'11111222,11111222,11111222' 
TCOON,ioos:station:TCOON:518:1,2012-06-05T15:00:00Z,29.5150,-94.5133,0.0,1.8,318.0,2.1,'11111222,11111222,11111222' 
TCOON,ioos:station:TCOON:518:1,2012-06-05T16:00:00Z,29.5150,-94.5133,0.0,1.6,291.0,2.7,'11111222,11111222,11111222' 
TCOON,ioos:station:TCOON:518:1,2012-06-05T17:00:00Z,29.5150,-94.5133,0.0,0.7,306.0,2.8,'11111222,11111222,11111222' 
TCOON,ioos:station:TCOON:518:1,2012-06-05T18:00:00Z,29.5150,-94.5133,0.0,3.3,175.0,5.0,'11111222,11111222,11111222' 
TCOON,ioos:station:TCOON:518:1,2012-06-05T19:00:00Z,29.5150,-94.5133,0.0,3.3,174.0,4.5,'11111222,11111222,11111222' 
TCOON,ioos:station:TCOON:518:1,2012-06-05T20:00:00Z,29.5150,-94.5133,0.0,4.4,166.0,6.4,'11111222,11111222,11111222' 
TCOON,ioos:station:TCOON:518:1,2012-06-05T21:00:00Z,29.5150,-94.5133,0.0,3.9,173.0,6.1,'11111222,11111222,11111222' 
TCOON,ioos:station:TCOON:518:1,2012-06-05T22:00:00Z,29.5150,-94.5133,0.0,4.3,174.0,6.7,'11111222,11111222,11111222' 
TCOON,ioos:station:TCOON:518:1,2012-06-05T23:00:00Z,29.5150,-94.5133,0.0,4.3,185.0,5.9,'11111222,11111222,11111222' 
TCOON,ioos:station:TCOON:518:1,2012-06-06T00:00:00Z,29.5150,-94.5133,0.0,3.3,187.0,5.7,'11111222,11111222,11111222' 
TCOON,ioos:station:TCOON:518:1,2012-06-06T01:00:00Z,29.5150,-94.5133,0.0,3.2,187.0,6.0,'11111222,11111222,11111222' 
TCOON,ioos:station:TCOON:518:1,2012-06-06T02:00:00Z,29.5150,-94.5133,0.0,2.7,202.0,5.2,'11111222,11111222,11111222' 
TCOON,ioos:station:TCOON:518:1,2012-06-06T03:00:00Z,29.5150,-94.5133,0.0,2.6,216.0,4.6,'11111222,11111222,11111222' 
TCOON,ioos:station:TCOON:518:1,2012-06-06T04:00:00Z,29.5150,-94.5133,0.0,2.9,213.0,4.4,'11111222,11111222,11111222' 
TCOON,ioos:station:TCOON:518:1,2012-06-06T05:00:00Z,29.5150,-94.5133,0.0,3.7,229.0,5.4,'11111222,11111222,11111222' 
TCOON,ioos:station:TCOON:518:1,2012-06-06T06:00:00Z,29.5150,-94.5133,0.0,2.0,241.0,3.2,'11111222,11111222,11111222' 
TCOON,ioos:station:TCOON:518:1,2012-06-06T07:00:00Z,29.5150,-94.5133,0.0,2.2,240.0,3.1,'11111222,11111222,11111222' 
TCOON,ioos:station:TCOON:518:1,2012-06-06T08:00:00Z,29.5150,-94.5133,0.0,1.7,239.0,2.4,'11111222,11111222,11111222' 
TCOON,ioos:station:TCOON:518:1,2012-06-06T09:00:00Z,29.5150,-94.5133,0.0,1.6,251.0,2.1,'11111222,11111222,11111222' 
TCOON,ioos:station:TCOON:518:1,2012-06-06T10:00:00Z,29.5150,-94.5133,0.0,2.0,234.0,2.5,'11111222,11111222,11111222' 
TCOON,ioos:station:TCOON:518:1,2012-06-06T11:00:00Z,29.5150,-94.5133,0.0,1.7,238.0,2.4,'11111222,11111222,11111222' 
TCOON,ioos:station:TCOON:518:1,2012-06-06T12:00:00Z,29.5150,-94.5133,0.0,2.0,260.0,2.5,'11111222,11111222,11111222' 
TCOON,ioos:station:TCOON:518:1,2012-06-06T13:00:00Z,29.5150,-94.5133,0.0,2.2,262.0,3.3,'11111222,11111222,11111222' 
TCOON,ioos:station:TCOON:518:1,2012-06-06T14:00:00Z,29.5150,-94.5133,0.0,1.8,315.0,2.3,'11111222,11111222,11111222' 
TCOON,ioos:station:TCOON:518:1,2012-06-06T15:00:00Z,29.5150,-94.5133,0.0,1.1,345.0,1.8,'11111222,11111222,11111222' 
TCOON,ioos:station:TCOON:518:1,2012-06-06T16:00:00Z,29.5150,-94.5133,0.0,2.2,171.0,3.4,'11111222,11111222,11111222' 
TCOON,ioos:station:TCOON:518:1,2012-06-06T17:00:00Z,29.5150,-94.5133,0.0,3.4,132.0,4.1,'11111222,11111222,11111222' 
TCOON,ioos:station:TCOON:518:1,2012-06-06T18:00:00Z,29.5150,-94.5133,0.0,3.9,148.0,4.5,'11111222,11111222,11111222' 
TCOON,ioos:station:TCOON:518:1,2012-06-06T19:00:00Z,29.5150,-94.5133,0.0,4.1,154.0,5.6,'11111222,11111222,11111222' 
TCOON,ioos:station:TCOON:518:1,2012-06-06T20:00:00Z,29.5150,-94.5133,0.0,3.6,171.0,5.3,'11111222,11111222,11111222' 
TCOON,ioos:station:TCOON:518:1,2012-06-06T21:00:00Z,29.5150,-94.5133,0.0,4.2,173.0,5.7,'11111222,11111222,11111222' 
TCOON,ioos:station:TCOON:518:1,2012-06-06T22:00:00Z,29.5150,-94.5133,0.0,3.0,194.0,5.2,'11111222,11111222,11111222' 
TCOON,ioos:station:TCOON:518:1,2012-06-06T23:00:00Z,29.5150,-94.5133,0.0,3.9,155.0,4.7,'11111222,11111222,11111222' 
TCOON,ioos:station:TCOON:518:1,2012-06-07T00:00:00Z,29.5150,-94.5133,0.0,2.8,137.0,3.6,'11111222,11111222,11111222' 
TCOON,ioos:station:TCOON:518:1,2012-06-07T01:00:00Z,29.5150,-94.5133,0.0,5.7,95.0,7.4,'11111222,11111222,11111222' 
TCOON,ioos:station:TCOON:518:1,2012-06-07T02:00:00Z,29.5150,-94.5133,0.0,4.8,118.0,5.8,'11111222,11111222,11111222' 
TCOON,ioos:station:TCOON:518:1,2012-06-07T03:00:00Z,29.5150,-94.5133,0.0,3.0,148.0,3.6,'11111222,11111222,11111222' 
TCOON,ioos:station:TCOON:518:1,2012-06-07T04:00:00Z,29.5150,-94.5133,0.0,1.8,135.0,2.0,'11111222,11111222,11111222' 
TCOON,ioos:station:TCOON:518:1,2012-06-07T05:00:00Z,29.5150,-94.5133,0.0,6.4,47.0,7.6,'11111222,11111222,11111222' 
TCOON,ioos:station:TCOON:518:1,2012-06-07T06:00:00Z,29.5150,-94.5133,0.0,6.6,65.0,7.4,'11111222,11111222,11111222' 
TCOON,ioos:station:TCOON:518:1,2012-06-07T07:00:00Z,29.5150,-94.5133,0.0,5.2,51.0,5.7,'11111222,11111222,11111222' 
TCOON,ioos:station:TCOON:518:1,2012-06-07T08:00:00Z,29.5150,-94.5133,0.0,4.5,55.0,5.2,'11111222,11111222,11111222' 
TCOON,ioos:station:TCOON:518:1,2012-06-07T09:00:00Z,29.5150,-94.5133,0.0,7.4,10.0,10.7,'11111222,11111222,11111222' 
TCOON,ioos:station:TCOON:518:1,2012-06-07T10:00:00Z,29.5150,-94.5133,0.0,5.9,20.0,7.2,'11111222,11111222,11111222' 
TCOON,ioos:station:TCOON:518:1,2012-06-07T11:00:00Z,29.5150,-94.5133,0.0,6.2,34.0,7.2,'11111222,11111222,11111222' 
TCOON,ioos:station:TCOON:518:1,2012-06-07T12:00:00Z,29.5150,-94.5133,0.0,5.3,53.0,6.2,'11111222,11111222,11111222' 
TCOON,ioos:station:TCOON:518:1,2012-06-07T13:00:00Z,29.5150,-94.5133,0.0,5.0,50.0,5.9,'11111222,11111222,11111222' 
TCOON,ioos:station:TCOON:518:1,2012-06-07T14:00:00Z,29.5150,-94.5133,0.0,4.8,53.0,5.5,'11111222,11111222,11111222' 
TCOON,ioos:station:TCOON:518:1,2012-06-07T15:00:00Z,29.5150,-94.5133,0.0,3.3,60.0,4.0,'11111222,11111222,11111222' 
TCOON,ioos:station:TCOON:518:1,2012-06-07T16:00:00Z,29.5150,-94.5133,0.0,3.3,70.0,5.5,'11111222,11111222,11111222' 
TCOON,ioos:station:TCOON:518:1,2012-06-07T17:00:00Z,29.5150,-94.5133,0.0,4.6,125.0,6.2,'11111222,11111222,11111222' 
TCOON,ioos:station:TCOON:518:1,2012-06-07T18:00:00Z,29.5150,-94.5133,0.0,4.6,120.0,,'1111122,1111122,1111122' 
TCOON,ioos:station:TCOON:518:1,2012-06-07T19:00:00Z,29.5150,-94.5133,0.0,5.1,120.0,,'1111122,1111122,1111122' 
TCOON,ioos:station:TCOON:518:1,2012-06-07T20:00:00Z,29.5150,-94.5133,0.0,5.1,140.0,,'1111122,1111122,1111122' 
TCOON,ioos:station:TCOON:518:1,2012-06-07T21:00:00Z,29.5150,-94.5133,0.0,5.1,160.0,,'1111122,1111122,1111122' 
TCOON,ioos:station:TCOON:518:1,2012-06-07T22:00:00Z,29.5150,-94.5133,0.0,4.1,160.0,,'1111122,1111122,1111122' 
TCOON,ioos:station:TCOON:518:1,2012-06-07T23:00:00Z,29.5150,-94.5133,0.0,4.1,160.0,,'1111122,1111122,1111122' 
TCOON,ioos:station:TCOON:518:1,2012-06-08T00:00:00Z,29.5150,-94.5133,0.0,3.1,170.0,,'1111122,1111122,1111122' 
TCOON,ioos:station:TCOON:518:1,2012-06-08T01:00:00Z,29.5150,-94.5133,0.0,1.0,170.0,,'1111122,1111122,1111122' 
TCOON,ioos:station:TCOON:518:1,2012-06-08T02:00:00Z,29.5150,-94.5133,0.0,1.5,80.0,,'1111122,1111122,1111122' 
TCOON,ioos:station:TCOON:518:1,2012-06-08T03:00:00Z,29.5150,-94.5133,0.0,7.7,70.0,,'1111122,1111122,1111122' 
TCOON,ioos:station:TCOON:518:1,2012-06-08T04:00:00Z,29.5150,-94.5133,0.0,6.7,90.0,,'1111122,1111122,1111122' 
TCOON,ioos:station:TCOON:518:1,2012-06-08T05:00:00Z,29.5150,-94.5133,0.0,5.7,50.0,,'1111122,1111122,1111122' 
TCOON,ioos:station:TCOON:518:1,2012-06-08T06:00:00Z,29.5150,-94.5133,0.0,3.1,60.0,,'1111122,1111122,1111122' 
TCOON,ioos:station:TCOON:518:1,2012-06-08T07:00:00Z,29.5150,-94.5133,0.0,1.5,300.0,,'1111122,1111122,1111122' 
TCOON,ioos:station:TCOON:518:1,2012-06-08T08:00:00Z,29.5150,-94.5133,0.0,2.6,190.0,,'1111122,1111122,1111122' 
TCOON,ioos:station:TCOON:518:1,2012-06-08T09:00:00Z,29.5150,-94.5133,0.0,2.1,80.0,,'1111122,1111122,1111122' 
TCOON,ioos:station:TCOON:518:1,2012-06-08T10:00:00Z,29.5150,-94.5133,0.0,6.7,10.0,,'1111122,1111122,1111122' 
TCOON,ioos:station:TCOON:518:1,2012-06-08T11:00:00Z,29.5150,-94.5133,0.0,6.2,20.0,,'1111122,1111122,1111122' 
TCOON,ioos:station:TCOON:518:1,2012-06-08T12:00:00Z,29.5150,-94.5133,0.0,4.6,20.0,,'1111122,1111122,1111122' 
TCOON,ioos:station:TCOON:518:1,2012-06-08T13:00:00Z,29.5150,-94.5133,0.0,6.7,30.0,,'1111122,1111122,1111122' 
TCOON,ioos:station:TCOON:518:1,2012-06-08T14:00:00Z,29.5150,-94.5133,0.0,7.2,30.0,,'1111122,1111122,1111122' 
TCOON,ioos:station:TCOON:518:1,2012-06-08T15:00:00Z,29.5150,-94.5133,0.0,5.7,40.0,,'1111122,1111122,1111122' 
TCOON,ioos:station:TCOON:518:1,2012-06-08T16:00:00Z,29.5150,-94.5133,0.0,4.6,40.0,,'1111122,1111122,1111122' 
TCOON,ioos:station:TCOON:518:1,2012-06-08T17:00:00Z,29.5150,-94.5133,0.0,3.1,30.0,,'1111122,1111122,1111122' 
TCOON,ioos:station:TCOON:518:1,2012-06-08T18:00:00Z,29.5150,-94.5133,0.0,5.3,122.0,6.0,'11111222,11111222,11111222' 
TCOON,ioos:station:TCOON:518:1,2012-06-08T19:00:00Z,29.5150,-94.5133,0.0,4.6,125.0,6.3,'11111222,11111222,11111222' 
TCOON,ioos:station:TCOON:518:1,2012-06-08T20:00:00Z,29.5150,-94.5133,0.0,5.1,131.0,6.7,'11111222,11111222,11111222' 
TCOON,ioos:station:TCOON:518:1,2012-06-08T21:00:00Z,29.5150,-94.5133,0.0,6.2,140.0,,'1111122,1111122,1111122' 
TCOON,ioos:station:TCOON:518:1,2012-06-08T22:00:00Z,29.5150,-94.5133,0.0,5.1,140.0,,'1111122,1111122,1111122' 
TCOON,ioos:station:TCOON:518:1,2012-06-08T23:00:00Z,29.5150,-94.5133,0.0,2.6,150.0,,'1111122,1111122,1111122' 
TCOON,ioos:station:TCOON:518:1,2012-06-09T00:00:00Z,29.5150,-94.5133,0.0,2.1,180.0,,'1111122,1111122,1111122' 
TCOON,ioos:station:TCOON:518:1,2012-06-09T01:00:00Z,29.5150,-94.5133,0.0,1.5,220.0,,'1111122,1111122,1111122' 
TCOON,ioos:station:TCOON:518:1,2012-06-09T02:00:00Z,29.5150,-94.5133,0.0,2.1,170.0,,'1111122,1111122,1111122' 
TCOON,ioos:station:TCOON:518:1,2012-06-09T03:00:00Z,29.5150,-94.5133,0.0,7.2,60.0,,'1111122,1111122,1111122' 
TCOON,ioos:station:TCOON:518:1,2012-06-09T04:00:00Z,29.5150,-94.5133,0.0,6.2,30.0,,'1111122,1111122,1111122' 
TCOON,ioos:station:TCOON:518:1,2012-06-09T05:00:00Z,29.5150,-94.5133,0.0,6.2,340.0,,'1111122,1111122,1111122' 
TCOON,ioos:station:TCOON:518:1,2012-06-09T06:00:00Z,29.5150,-94.5133,0.0,4.1,40.0,,'1111122,1111122,1111122' 
TCOON,ioos:station:TCOON:518:1,2012-06-09T07:00:00Z,29.5150,-94.5133,0.0,5.1,80.0,,'1111122,1111122,1111122' 
TCOON,ioos:station:TCOON:518:1,2012-06-09T08:00:00Z,29.5150,-94.5133,0.0,5.1,110.0,,'1111122,1111122,1111122' 
TCOON,ioos:station:TCOON:518:1,2012-06-09T09:00:00Z,29.5150,-94.5133,0.0,3.1,100.0,,'1111122,1111122,1111122' 
TCOON,ioos:station:TCOON:518:1,2012-06-09T10:00:00Z,29.5150,-94.5133,0.0,5.1,10.0,,'1111122,1111122,1111122' 
TCOON,ioos:station:TCOON:518:1,2012-06-09T11:00:00Z,29.5150,-94.5133,0.0,5.7,20.0,,'1111122,1111122,1111122' 
TCOON,ioos:station:TCOON:518:1,2012-06-09T12:00:00Z,29.5150,-94.5133,0.0,5.7,50.0,,'1111122,1111122,1111122' 
TCOON,ioos:station:TCOON:518:1,2012-06-09T13:00:00Z,29.5150,-94.5133,0.0,5.7,30.0,,'1111122,1111122,1111122' 
TCOON,ioos:station:TCOON:518:1,2012-06-09T14:00:00Z,29.5150,-94.5133,0.0,4.6,40.0,,'1111122,1111122,1111122' 
TCOON,ioos:station:TCOON:518:1,2012-06-09T15:00:00Z,29.5150,-94.5133,0.0,3.1,40.0,,'1111122,1111122,1111122' 
TCOON,ioos:station:TCOON:518:1,2012-06-09T16:00:00Z,29.5150,-94.5133,0.0,2.6,30.0,,'1111122,1111122,1111122' 